Weather History for KLXV - July, 2013

Change the Weather History Date:

Tuesday, July 9, 2013

  Actual Average Record
Temperature  
Mean Temperature 57 °F -  
Max Temperature 74 °F 70 °F 78 °F (1989)
Min Temperature 40 °F 37 °F 30 °F (1993)
Degree Days  
Heating Degree Days 8 11  
Month to date heating degree days 76 105  
Since 1 June heating degree days 447 585  
Since 1 July heating degree days 76 105  
Cooling Degree Days 0 0  
Month to date cooling degree days 0 0  
Year to date cooling degree days 0 0  
Since 1 June cooling degree days 0 0  
Growing Degree Days 6 (Base 50)    
Moisture  
Dew Point 33 °F    
Average Humidity 49    
Maximum Humidity 79    
Minimum Humidity 19    
Precipitation  
Precipitation T in 0.05 in 0.39 in (1984)
Month to date precipitation 0.37 0.41  
Year to date precipitation 7.83 5.48  
Sea Level Pressure  
Sea Level Pressure 30.08 in    
Wind  
Wind Speed 5 mph (NNE)    
Max Wind Speed 20 mph    
Max Gust Speed 25 mph    
Visibility 10 miles    
Events      
T = Trace of Precipitation, MM = Missing Value Source: NWS Daily Summary

Daily Weather History Graph

Daily Weather History Graph

Search for Another Location

Airport or City:

Trip Planner

Search our weather history database for the weather conditions in past years. The results will help you decide how hot, cold, wet, or windy it might be!

Date:

Astronomy

Jul. 09, 2013 Rise Set
Actual Time 5:47 AM MDT 8:33 PM MDT
Civil Twilight 5:15 AM MDT 9:05 PM MDT
Nautical Twilight 4:35 AM MDT 9:44 PM MDT
Astronomical Twilight 3:50 AM MDT 10:29 PM MDT
Moon 7:13 AM MDT (7/9) 9:13 PM MDT (7/9)
Length of Visible Light 15h 49m
Length of Day
14h 46m
New Moon, 2% of the Moon is Illuminated
Jul 9
New Moon
Jul 15
First Quarter
Jul 22
Full
Jul 29
Last Quarter
Aug 6
New

Hourly Weather History & Observations

Time (MDT) Temp. Windchill Dew Point Humidity Pressure Visibility Wind Dir Wind Speed Gust Speed Precip Events Conditions
12:53 AM 46.9 °F - 34.0 °F 61% 30.05 in 10.0 mi NE 4.6 mph - N/A   Clear
1:53 AM 44.1 °F 42.5 °F 34.0 °F 68% 30.06 in 10.0 mi NE 3.5 mph - N/A   Clear
2:53 AM 46.0 °F - 33.1 °F 61% 30.04 in 10.0 mi Calm Calm - N/A   Mostly Cloudy
3:53 AM 46.0 °F - 34.0 °F 63% 30.03 in 10.0 mi Calm Calm - N/A   Clear
4:53 AM 43.0 °F 38.8 °F 33.1 °F 68% 30.06 in 10.0 mi ENE 6.9 mph - N/A   Clear
5:53 AM 39.9 °F 37.8 °F 33.1 °F 77% 30.11 in 10.0 mi ENE 3.5 mph - N/A   Clear
6:53 AM 48.0 °F - 36.0 °F 63% 30.06 in 10.0 mi North 5.8 mph - N/A   Clear
7:53 AM 53.1 °F - 35.1 °F 50% 30.06 in 10.0 mi Calm Calm - N/A   Clear
8:53 AM 59.0 °F - 34.0 °F 39% 30.07 in 10.0 mi Calm Calm - N/A   Clear
9:53 AM 66.0 °F - 33.1 °F 29% 30.06 in 10.0 mi Variable 3.5 mph - N/A   Clear
10:53 AM 68.0 °F - 30.9 °F 25% 30.07 in 10.0 mi NW 8.1 mph - N/A   Mostly Cloudy
11:53 AM 69.1 °F - 28.0 °F 22% 30.08 in 10.0 mi Variable 4.6 mph - N/A   Scattered Clouds
12:53 PM 72.0 °F - 28.0 °F 20% 30.06 in 10.0 mi North 12.7 mph 18.4 mph N/A   Scattered Clouds
1:32 PM 69.8 °F - 32.0 °F 25% 30.59 in 10.0 mi NNE 18.4 mph 24.2 mph N/A   Mostly Cloudy
1:53 PM 70.0 °F - 30.9 °F 24% 30.08 in 10.0 mi North 10.4 mph 17.3 mph N/A   Mostly Cloudy
2:53 PM 71.1 °F - 28.0 °F 20% 30.04 in 10.0 mi NNE 8.1 mph - N/A   Mostly Cloudy
3:53 PM 72.0 °F - 26.1 °F 18% 30.04 in 10.0 mi North 10.4 mph - N/A   Mostly Cloudy
4:53 PM 70.0 °F - 32.0 °F 25% 30.06 in 10.0 mi NE 9.2 mph - 0.00 in   Overcast
5:53 PM 68.0 °F - 34.0 °F 28% 30.09 in 10.0 mi North 10.4 mph - N/A   Overcast
6:53 PM 70.0 °F - 34.0 °F 27% 30.03 in 10.0 mi North 12.7 mph - N/A   Clear
7:53 PM 69.1 °F - 33.1 °F 26% 30.01 in 10.0 mi North 5.8 mph - N/A   Mostly Cloudy
8:53 PM 62.1 °F - 36.0 °F 38% 30.02 in 10.0 mi ESE 4.6 mph - N/A   Mostly Cloudy
9:53 PM 59.0 °F - 37.0 °F 44% 30.03 in 10.0 mi ENE 3.5 mph - N/A   Scattered Clouds
10:53 PM 55.9 °F - 36.0 °F 47% 30.05 in 10.0 mi Calm Calm - N/A   Clear
11:53 PM 53.1 °F - 36.0 °F 52% 30.06 in 10.0 mi ENE 3.5 mph - N/A   Clear